"Pseudo-MPEC" for C0VDQC5

Created 2024 Nov 30 14:31:02 UT using Find_Orb

Click here for an explanation of pseudo-MPECs

 
 Astrometry: 
     C0VDQC5* C2024 11 26.40847704 37 15.856+25 49 20.17   ~BQAl 22.57GVNEOCPV00
     C0VDQC5  C2024 11 26.41410504 37 15.092+25 49 18.80   ~BQAl 22.43GVNEOCPV00
     C0VDQC5  C2024 11 26.42531504 37 13.588+25 49 15.71   ~BQAl       VNEOCPV00
     C0VDQC5  C2024 11 26.46389004 37 08.430+25 49 04.80   ~BQC2 22.8 RVNEOCP291
     C0VDQC5  C2024 11 26.47046004 37 07.480+25 49 02.80   ~BQC2       VNEOCP291
     C0VDQC5  C2024 11 29.22288004 31 31.220+25 37 40.30   ~BT92 21.8 RVNEOCP291
     C0VDQC5  C2024 11 29.25513004 31 27.240+25 37 32.00   ~BT92 22.2 RVNEOCP291
     C0VDQC5 mC2024 11 29.29097204 31 22.530+25 37 22.12   ~BT7V       VNEOCPV00
     C0VDQC5 mC2024 11 29.29447004 31 22.066+25 37 22.19   ~BT7V       VNEOCPV00
     C0VDQC5 mC2024 11 29.29796404 31 21.644+25 37 20.75   ~BT7V 22.30GVNEOCPV00
     C0VDQC5  C2024 11 29.30002204 31 21.414+25 37 20.50   ~BT8V 22.52GVNEOCPV00
     C0VDQC5 mC2024 11 29.30144804 31 21.202+25 37 19.99   ~BT7V 22.39GVNEOCPV00
     C0VDQC5  C2024 11 29.30660904 31 20.550+25 37 18.55   ~BT8V 22.52GVNEOCPV00
     C0VDQC5  C2024 11 29.31221804 31 19.844+25 37 16.97   ~BT8V       VNEOCPV00
     C0VDQC5 KC2024 11 30.18893104 29 38.66 +25 33 26.9    ~BU5H 22.1 GVNEOCPH21
     C0VDQC5 KC2024 11 30.19470904 29 37.99 +25 33 25.8    ~BU5H 22.4 GVNEOCPH21
     C0VDQC5 KC2024 11 30.19759804 29 37.66 +25 33 25.0    ~BU5H 22.1 GVNEOCPH21

Station data:
(291) LPL/Spacewatch II  (N31.961669 W111.599905)  US/Arizona.  Observers J.
   V. Scotti, R. S. McMillan. 1.8-m f/2.7 reflector + CCD.
(H21) Astronomical Research Observatory, Westfield  (N39.483054 W87.968270)
   US/Illinois.  Observer R. Holmes. Measurers S. Foglia, L. Buzzi, T.
   Linder, R. Holmes. 0.76-m f/3.0 astrograph + CCD0.81-m f/4.0 astrograph +
   CCD0.61-m f/4.5 astrograph + CCD0.40-m f/5.32 astrograph + CCD.
(V00) Kitt Peak-Bok  (N31.963125 W111.600190)  US/Arizona.  Observers T. A.
   Pruyne, B. M. Africano, E. J. Christensen, G. A. Farneth, D. C. Fuls, A.
   R. Gibbs, A. D. Grauer, H. Gröller, J. A. Johnson, R. A. Kowalski, S. M.
   Larson, G. J. Leonard, D. Rankin, R. L. Seaman, F. C. Shelly, K. W.
   Wierzchoś. 2.25-m reflector + 4x4K mosaic CCD.

Orbital elements:  C0VDQC5
   Perihelion 2024 Aug 29.63270 +/- 0.504 TT = 15:11:05 (JD 2460552.13270)
Epoch 2024 Nov 30.0 TT = JDT 2460644.5   Earth MOID: 0.0046   Ma: 0.0046
M  42.39487860 +/- 1.3              (J2000 ecliptic)             AutoNEOCP
n   0.45898144 +/- 0.0172           Peri.  315.02469 +/- 0.57
a   1.66445718 +/- 0.0416           Node    23.19692 +/- 0.17
e   0.4305143 +/- 0.0171            Incl.    1.42578 +/- 0.042
P   2.147/784.331d         H 23.83  G  0.15   U 10.0
q 0.94788440 +/- 0.00478    Q 2.38102996 +/- 0.0879
From 17 observations 2024 Nov. 26-30; mean residual 0".53
Residuals in arcseconds: 
241126 V00  .27-  .01+    241129 291  1.6+  .06+    241129 V00  .45-  .61-    
241126 V00  .23-  .16+    241129 V00  .55-  1.0-    241129 V00  .36-  .74-    
241126 V00  .05+  .14+    241129 V00  .81-  .07-    241130 H21  .46-  .20+    
241126 291  .65+  .06+    241129 V00  .52-  .62-    241130 H21  .04+  .52+    
241126 291  .31-  .05-    241129 V00  .09-  .35-    241130 H21  .36+  .44+    
241129 291  .29+  .81+    241129 V00  .51-  .50-    

Ephemerides (geocentric):
Date (UTC) HH   RA             Dec           delta  r     elong  mag " sig PA
---- --------  ------------   ------------  ------ ------ -----  --- --------
2024 11 30 15  04 28 48.826   +25 31 38.31  .37656 1.3621 176.2 22.7 .162  57
2024 11 30 16  04 28 44.140   +25 31 27.35  .37683 1.3624 176.2 22.7 .162  53
2024 11 30 17  04 28 39.461   +25 31 16.38  .37710 1.3627 176.2 22.7 .163  48
2024 11 30 18  04 28 34.789   +25 31 05.41  .37736 1.3629 176.2 22.7 .166  43
2024 11 30 19  04 28 30.123   +25 30 54.44  .37763 1.3632 176.2 22.7 .169  38
2024 11 30 20  04 28 25.465   +25 30 43.46  .37790 1.3635 176.2 22.7 .173  33
2024 11 30 21  04 28 20.813   +25 30 32.47  .37817 1.3637 176.3 22.7 .179  28
2024 11 30 22  04 28 16.168   +25 30 21.48  .37844 1.3640 176.3 22.7 .185  24
2024 11 30 23  04 28 11.530   +25 30 10.48  .37871 1.3642 176.3 22.7 .193  20
2024 12 01 00  04 28 06.899   +25 29 59.48  .37898 1.3645 176.3 22.7 .201  15
2024 12 01 01  04 28 02.274   +25 29 48.48  .37925 1.3648 176.3 22.7 .211  12
2024 12 01 02  04 27 57.657   +25 29 37.46  .37952 1.3650 176.3 22.7 .221   8
2024 12 01 03  04 27 53.046   +25 29 26.45  .37979 1.3653 176.3 22.7 .232   5
2024 12 01 04  04 27 48.442   +25 29 15.43  .38006 1.3656 176.3 22.7 .245   1
2024 12 01 05  04 27 43.845   +25 29 04.40  .38033 1.3658 176.3 22.7 .258 178
2024 12 01 06  04 27 39.256   +25 28 53.37  .38060 1.3661 176.3 22.7 .271 176
2024 12 01 07  04 27 34.672   +25 28 42.34  .38087 1.3664 176.3 22.7 .286 173
2024 12 01 08  04 27 30.096   +25 28 31.30  .38115 1.3666 176.3 22.7 .301 171
2024 12 01 09  04 27 25.527   +25 28 20.25  .38142 1.3669 176.3 22.7 .317 168
2024 12 01 10  04 27 20.965   +25 28 09.21  .38169 1.3672 176.3 22.7 .334 166
2024 12 01 11  04 27 16.409   +25 27 58.15  .38196 1.3674 176.3 22.7 .351 164
2024 12 01 12  04 27 11.861   +25 27 47.10  .38224 1.3677 176.3 22.7 .369 162
2024 12 01 13  04 27 07.319   +25 27 36.04  .38251 1.3680 176.3 22.7 .388 161
2024 12 01 14  04 27 02.785   +25 27 24.97  .38278 1.3682 176.3 22.7 .407 159
2024 12 01 15  04 26 58.257   +25 27 13.90  .38306 1.3685 176.3 22.7 .427 157
2024 12 01 16  04 26 53.737   +25 27 02.83  .38333 1.3688 176.3 22.7 .447 156
2024 12 01 17  04 26 49.223   +25 26 51.76  .38361 1.3690 176.3 22.7 .468 155
2024 12 01 18  04 26 44.716   +25 26 40.68  .38388 1.3693 176.2 22.7 .490 153
2024 12 01 19  04 26 40.217   +25 26 29.59  .38416 1.3695 176.2 22.7 .512 152
2024 12 01 20  04 26 35.724   +25 26 18.51  .38443 1.3698 176.2 22.7 .534 151
2024 12 01 21  04 26 31.238   +25 26 07.42  .38471 1.3701 176.2 22.7 .558 150
2024 12 01 22  04 26 26.760   +25 25 56.32  .38499 1.3703 176.2 22.7 .581 149
2024 12 01 23  04 26 22.288   +25 25 45.23  .38526 1.3706 176.2 22.7 .606 148
2024 12 02 00  04 26 17.823   +25 25 34.13  .38554 1.3709 176.2 22.7 .631 147
2024 12 02 01  04 26 13.366   +25 25 23.02  .38582 1.3711 176.2 22.7 .656 146
2024 12 02 02  04 26 08.915   +25 25 11.92  .38609 1.3714 176.1 22.7 .682 145
2024 12 02 03  04 26 04.471   +25 25 00.81  .38637 1.3717 176.1 22.7 .708 144
2024 12 02 04  04 26 00.035   +25 24 49.69  .38665 1.3719 176.1 22.7 .735 143
2024 12 02 05  04 25 55.605   +25 24 38.58  .38693 1.3722 176.1 22.8 .763 142
2024 12 02 06  04 25 51.183   +25 24 27.46  .38721 1.3725 176.1 22.8 .791 141
2024 12 02 07  04 25 46.768   +25 24 16.34  .38748 1.3727 176.0 22.8 .820 141
2024 12 02 08  04 25 42.359   +25 24 05.22  .38776 1.3730 176.0 22.8 .849 140
2024 12 02 09  04 25 37.958   +25 23 54.09  .38804 1.3733 176.0 22.8 .879 139
2024 12 02 10  04 25 33.564   +25 23 42.96  .38832 1.3735 176.0 22.8 .909 139
2024 12 02 11  04 25 29.177   +25 23 31.83  .38860 1.3738 175.9 22.8 .940 138
2024 12 02 12  04 25 24.797   +25 23 20.70  .38888 1.3741 175.9 22.8 .972 137
2024 12 02 13  04 25 20.424   +25 23 09.56  .38916 1.3743 175.9 22.8 1.00 137
2024 12 02 14  04 25 16.058   +25 22 58.42  .38944 1.3746 175.9 22.8 1.04 136